Weather History for Rochelle, IL

Change the Weather History Date:

Monday, July 29, 2013

  Actual Average (KRFD) Record (KRFD)
Temperature  
Mean Temperature 60 °F 73 °F  
Max Temperature 76 °F 84 °F 104 °F (1916)
Min Temperature 44 °F 63 °F 47 °F (1925)
Degree Days  
Heating Degree Days 6 0  
Month to date heating degree days 0  
Since 1 June heating degree days 31  
Since 1 July heating degree days 0  
Cooling Degree Days 0 8  
Month to date cooling degree days 258  
Year to date cooling degree days 488  
Since 1 June cooling degree days 433  
Growing Degree Days 10 (Base 50)    
Moisture  
Dew Point 52 °F    
Average Humidity 73    
Maximum Humidity 95    
Minimum Humidity 45    
Precipitation  
Precipitation 0.00 in 0.13 in 2.00 in (1989)
Month to date precipitation 3.67  
Year to date precipitation 20.79  
Snow  
Snow 0.00 in 0.00 in 0.00 in ()
Month to date snowfall 0.0  
Since 1 June snowfall 0.0  
Since 1 July snowfall 0.0  
Snow Depth -    
Sea Level Pressure  
Sea Level Pressure 30.13 in    
Wind  
Wind Speed 2 mph (West)    
Max Wind Speed 10 mph    
Max Gust Speed 16 mph    
Visibility 10 miles    
Events      
T = Trace of Precipitation, MM = Missing Value Source: NWS Daily Summary

Daily Weather History Graph

Daily Weather History Graph

Search for Another Location

Airport:

Trip Planner

Search our weather history database for the weather conditions in past years. The results will help you decide how hot, cold, wet, or windy it might be!

Date:

Astronomy

Jul. 29, 2013 Rise Set
Actual Time 5:47 AM CDT 8:17 PM CDT
Civil Twilight 5:15 AM CDT 8:49 PM CDT
Nautical Twilight 4:35 AM CDT 9:28 PM CDT
Astronomical Twilight 3:51 AM CDT 10:12 PM CDT
Moon No Moon Rise 1:37 PM CDT (7/29)
Length of Visible Light 15h 33m
Length of Day
14h 30m
Waning Gibbous, 50% of the Moon is Illuminated
Jul 29
Waning Gibbous
Jul 29
Last Quarter
Aug 6
New
Aug 14
First Quarter
Aug 20
Full

Hourly Weather History & Observations

Time (CDT) Temp. Windchill Dew Point Humidity Pressure Visibility Wind Dir Wind Speed Gust Speed Precip Events Conditions
12:15 AM 50.9 °F - 48.4 °F 91% 30.06 in 10.0 mi Calm Calm - N/A   Scattered Clouds
12:35 AM 50.7 °F - 48.2 °F 91% 30.06 in 10.0 mi Calm Calm - N/A   Clear
12:55 AM 49.3 °F - 47.3 °F 93% 30.06 in 10.0 mi Calm Calm - N/A   Clear
1:15 AM 50.4 °F - 48.0 °F 92% 30.06 in 10.0 mi Calm Calm - N/A   Clear
1:35 AM 50.4 °F - 47.8 °F 91% 30.06 in 10.0 mi Calm Calm - N/A   Clear
1:55 AM 50.0 °F - 47.5 °F 91% 30.06 in 10.0 mi Calm Calm - N/A   Clear
2:15 AM 49.1 °F - 46.8 °F 92% 30.06 in 10.0 mi Calm Calm - N/A   Clear
2:55 AM 47.8 °F - 46.2 °F 94% 30.06 in 10.0 mi Calm Calm - N/A   Clear
3:15 AM 47.3 °F - 45.5 °F 93% 30.07 in 10.0 mi Calm Calm - N/A   Clear
3:35 AM 46.9 °F - 45.3 °F 94% 30.07 in 10.0 mi WSW 4.6 mph - N/A   Clear
3:55 AM 46.0 °F 44.8 °F 44.4 °F 94% 30.08 in 10.0 mi SSW 3.5 mph - N/A   Clear
4:15 AM 45.7 °F 44.4 °F 44.2 °F 95% 30.08 in 10.0 mi South 3.5 mph - N/A   Clear
4:35 AM 45.7 °F - 44.2 °F 95% 30.08 in 10.0 mi Calm Calm - N/A   Clear
4:55 AM 45.1 °F - 43.7 °F 95% 30.09 in 10.0 mi Calm Calm - N/A   Clear
5:15 AM 45.1 °F - 43.7 °F 95% 30.09 in 10.0 mi Calm Calm - N/A   Clear
5:35 AM 45.1 °F - 43.9 °F 95% 30.09 in 10.0 mi Calm Calm - N/A   Clear
5:55 AM 44.6 °F - 43.3 °F 95% 30.10 in 10.0 mi Calm Calm - N/A   Clear
6:15 AM 45.5 °F 44.2 °F 44.2 °F 95% 30.11 in 10.0 mi South 3.5 mph - N/A   Clear
6:35 AM 46.6 °F - 45.3 °F 95% 30.11 in 10.0 mi Calm Calm - N/A   Clear
6:55 AM 48.9 °F - 47.5 °F 95% 30.12 in 10.0 mi Calm Calm - N/A   Clear
7:15 AM 50.7 °F - 49.1 °F 94% 30.12 in 10.0 mi Calm Calm - N/A   Clear
7:35 AM 53.1 °F - 50.5 °F 91% 30.12 in 10.0 mi Calm Calm - N/A   Clear
7:55 AM 55.4 °F - 52.2 °F 89% 30.13 in 10.0 mi Calm Calm - N/A   Clear
8:15 AM 57.9 °F - 53.4 °F 85% 30.14 in 10.0 mi West 3.5 mph - N/A   Clear
8:35 AM 60.8 °F - 53.6 °F 77% 30.15 in 10.0 mi West 4.6 mph - N/A   Clear
8:55 AM 62.6 °F - 53.2 °F 71% 30.14 in 10.0 mi NNW 6.9 mph - N/A   Clear
9:15 AM 63.9 °F - 52.9 °F 67% 30.15 in 10.0 mi NW 6.9 mph - N/A   Clear
9:35 AM 65.7 °F - 53.1 °F 64% 30.15 in 10.0 mi WNW 6.9 mph - N/A   Clear
9:55 AM 66.2 °F - 52.0 °F 60% 30.15 in 10.0 mi NW 6.9 mph - N/A   Clear
10:15 AM 67.6 °F - 52.5 °F 58% 30.15 in 10.0 mi WNW 6.9 mph - N/A   Clear
10:35 AM 68.2 °F - 51.8 °F 56% 30.15 in 10.0 mi WNW 9.2 mph - N/A   Clear
10:55 AM 69.6 °F - 52.5 °F 54% 30.15 in 10.0 mi West 9.2 mph 16.1 mph N/A   Clear
11:15 AM 70.3 °F - 51.4 °F 51% 30.16 in 10.0 mi NW 8.1 mph - N/A   Clear
11:35 AM 71.1 °F - 51.4 °F 50% 30.16 in 10.0 mi NW 10.4 mph - N/A   Clear
11:55 AM 71.2 °F - 50.0 °F 47% 30.16 in 10.0 mi NW 8.1 mph - N/A   Clear
12:15 PM 71.8 °F - 50.5 °F 47% 30.16 in 10.0 mi West 8.1 mph - N/A   Clear
12:35 PM 71.8 °F - 50.4 °F 47% 30.16 in 10.0 mi WNW 9.2 mph 16.1 mph N/A   Clear
12:55 PM 72.5 °F - 50.7 °F 46% 30.15 in 10.0 mi WNW 3.5 mph - N/A   Clear
1:15 PM 72.7 °F - 51.1 °F 47% 30.15 in 10.0 mi NW 4.6 mph - N/A   Clear
1:35 PM 73.6 °F - 51.8 °F 46% 30.14 in 10.0 mi North 6.9 mph - N/A   Clear
1:55 PM 74.1 °F - 52.5 °F 47% 30.14 in 10.0 mi NW 6.9 mph - N/A   Clear
2:15 PM 74.3 °F - 52.5 °F 46% 30.14 in 10.0 mi North 5.8 mph - N/A   Clear
2:35 PM 74.3 °F - 52.7 °F 47% 30.14 in 10.0 mi Calm Calm - N/A   Clear
2:55 PM 75.4 °F - 53.6 °F 47% 30.14 in 10.0 mi Calm Calm - N/A   Clear
3:15 PM 75.7 °F - 53.2 °F 45% 30.15 in 10.0 mi Calm Calm - N/A   Scattered Clouds
3:35 PM 75.7 °F - 52.9 °F 45% 30.15 in 10.0 mi WSW 5.8 mph - N/A   Scattered Clouds
3:55 PM 75.2 °F - 52.9 °F 46% 30.15 in 10.0 mi West 5.8 mph - N/A   Scattered Clouds
4:15 PM 74.8 °F - 53.4 °F 47% 30.15 in 10.0 mi Calm Calm - N/A   Clear
4:35 PM 75.7 °F - 53.2 °F 45% 30.15 in 10.0 mi West 5.8 mph - N/A   Scattered Clouds
4:55 PM 75.2 °F - 53.1 °F 46% 30.14 in 10.0 mi Calm Calm - N/A   Clear
5:15 PM 75.4 °F - 54.9 °F 49% 30.14 in 10.0 mi Calm Calm - N/A   Clear
5:35 PM 75.4 °F - 55.8 °F 50% 30.15 in 10.0 mi SSW 4.6 mph - N/A   Clear
5:55 PM 74.7 °F - 53.6 °F 48% 30.15 in 10.0 mi Calm Calm - N/A   Clear
6:15 PM 74.1 °F - 54.9 °F 51% 30.15 in 10.0 mi Calm Calm - N/A   Clear
6:35 PM 73.8 °F - 55.0 °F 52% 30.14 in 10.0 mi Calm Calm - N/A   Clear
6:55 PM 73.6 °F - 56.8 °F 56% 30.14 in 10.0 mi Calm Calm - N/A   Clear
7:15 PM 71.8 °F - 60.6 °F 68% 30.14 in 10.0 mi Calm Calm - N/A   Clear
7:35 PM 70.0 °F - 60.4 °F 72% 30.14 in 10.0 mi Calm Calm - N/A   Clear
7:55 PM 67.1 °F - 60.8 °F 80% 30.15 in 10.0 mi Calm Calm - N/A   Clear
8:15 PM 67.1 °F - 59.2 °F 76% 30.15 in 10.0 mi Calm Calm - N/A   Scattered Clouds
8:35 PM 64.9 °F - 59.7 °F 83% 30.15 in 10.0 mi ESE 4.6 mph - N/A   Scattered Clouds
8:55 PM 63.9 °F - 59.5 °F 86% 30.16 in 10.0 mi SE 3.5 mph - N/A   Mostly Cloudy
9:15 PM 63.1 °F - 59.0 °F 86% 30.17 in 10.0 mi SE 5.8 mph - N/A   Mostly Cloudy
9:35 PM 61.9 °F - 58.8 °F 90% 30.17 in 10.0 mi SSE 4.6 mph - N/A   Scattered Clouds
9:55 PM 61.9 °F - 58.3 °F 88% 30.17 in 10.0 mi SE 5.8 mph - N/A   Clear
10:15 PM 60.8 °F - 57.7 °F 90% 30.17 in 10.0 mi SE 4.6 mph - N/A   Clear
10:35 PM 60.1 °F - 57.2 °F 90% 30.17 in 10.0 mi SE 3.5 mph - N/A   Clear
10:55 PM 59.0 °F - 56.5 °F 91% 30.17 in 10.0 mi SE 3.5 mph - N/A   Clear
11:15 PM 58.1 °F - 55.8 °F 92% 30.18 in 10.0 mi ESE 4.6 mph - N/A   Clear
11:35 PM 58.1 °F - 55.6 °F 91% 30.18 in 10.0 mi SE 4.6 mph - N/A   Clear
11:55 PM 59.2 °F - 56.3 °F 90% 30.18 in 10.0 mi ESE 5.8 mph - N/A   Clear